Location: Burera
(21.3780°N, 81.9534°E)
Time: 23:15:00
(UTC+00:00)

CENTAUR R/B - Pass Details

Date: 13 August 2020
Orbit: 754 x 1434 km, 63.5° (Epoch: 17 September)

Event Time Altitude Azimuth Distance (km) Brightness Sun altitude
Rises 15:09:51 0° 223° (SW) 3,237 5.4 -27.9°
Reaches altitude 10° 15:12:15 10° 230° (SW) 2,355 4.7 -28.3°
Maximum altitude 15:17:19 42° 301° (WNW) 1,210 3.4 -29.4°
Drops below altitude 10° 15:23:05 10° 11° (N) 2,683 5.0 -30.5°
Sets 15:26:01 0° 18° (NNE) 3,742 5.7 -31.1°
